Content
SEND FEEDBACK

Daily
Averages
Monthly
Summary
United States of America

GENEVA - AIRPORT, ALABAMA


Home > North America > United States > Alabama
Elevation: 15 feet     Latitude: 31 03N     Longitude: 085 53W

WEATHER
 
SELECT A DAY
Number of Records: 46,611;   Date Range: 7/12/11 - 12/20/14
 
SHARE

PRINT THIS DATA

[ ← Previous Day ]
WEATHER ALMANAC - FEBRUARY 13, 2013
[ Next Day → ]
[ °C ]   °F
Weather ElementAverageHighLow
Temperature63 °F71.6 °F (12:21 am)48 °F (7:58 pm)
Dewpoint58.7 °F70 °F (12:58 am)44.6 °F (6:48 pm)
Humidity87.2 %100 % (1:57 am)52 % (11:58 am)
Barometer29.80 in30.00 in (11:58 pm)29.66 in (3:58 am)
Wind Speed5.6 mph11.5 mph (7:39 am)
Wind Gust19.6 mph (12:21 am)
Weather ElementAverage
Visibility8 mi
Wind DirectionSSW (195.4 °)

Weather ElementTotal
Precipitation0.06 in
Heating Degree Days5.2 (Base 65)
Growing Degree Days9.8 (Base 50)
Averaged from 39 records on February 13, 2013
WEATHER CONDITIONS BREAKOUT
WIND DIRECTION BREAKOUT
WEATHER BY HOUR - FEBRUARY 13, 2013
[ °C ]   °F
Local TimeTemperatureDewpointHumidityBarometerVisibilityWind DirectionWind SpeedGust SpeedPrecipitationEventsConditions
12:21 AM71.6 °F69.8 °F94 %29.80 in7.0 miSW (220°)9.2 mph19.6 mph0.00 inRainLight Rain
12:58 AM71.1 °F70.0 °F96 %29.67 in8.0 miSW (220°)6.9 mph0.00 inOvercast
1:06 AM71.6 °F69.8 °F94 %29.79 in7.0 miSSW (210°)8.1 mphOvercast
1:13 AM71.6 °F69.8 °F94 %29.79 in8.0 miSSW (210°)9.2 mph17.3 mph0.00 inRainLight Rain
1:57 AM70.0 °F70.0 °F100 %29.67 in2.0 miSW (230°)6.9 mph0.02 inRainHeavy Rain
2:06 AM69.8 °F69.8 °F100 %29.79 in4.0 miSW (230°)5.8 mph0.00 inRainLight Rain
2:50 AM69.8 °F69.8 °F100 %29.79 in4.0 miWSW (250°)9.2 mph16.1 mph0.02 inRainLight Rain
2:58 AM70.0 °F70.0 °F100 %29.67 in7.0 miWSW (240°)5.8 mph0.02 inOvercast
3:10 AM69.8 °F69.8 °F100 %29.78 in7.0 miWSW (250°)4.6 mph0.00 inRainLight Rain
3:58 AM69.1 °F69.1 °F100 %29.66 in7.0 miSW (220°)6.9 mph0.00 inPartly Cloudy
4:21 AM69.8 °F69.8 °F100 %29.78 in7.0 miSW (220°)5.8 mphMostly Cloudy
4:36 AM69.8 °F68.0 °F94 %29.78 in7.0 miSW (220°)6.9 mphMostly Cloudy
4:40 AM69.8 °F68.0 °F94 %29.79 in7.0 miSW (230°)8.1 mphMostly Cloudy
4:58 AM69.1 °F68.0 °F96 %29.67 in6.0 miSW (220°)6.9 mphMostly Cloudy
5:58 AM68.0 °F66.9 °F96 %29.69 in6.0 miWSW (240°)5.8 mphOvercast
6:13 AM66.2 °F66.2 °F100 %29.81 in6.0 miSW (230°)5.8 mphScattered Clouds
6:48 AM66.2 °F66.2 °F100 %29.82 in6.0 miWSW (240°)5.8 mphMostly Cloudy
6:52 AM66.2 °F66.2 °F100 %29.82 in6.0 miWSW (240°)5.8 mphScattered Clouds
6:58 AM66.9 °F66.0 °F97 %29.70 in6.0 miWSW (240°)6.9 mphPartly Cloudy
7:39 AM66.2 °F66.2 °F100 %29.86 in5.0 miNW (310°)11.5 mph18.4 mphMostly Cloudy
7:58 AM64.0 °F60.1 °F87 %29.75 in9.0 miWNW (300°)6.9 mphScattered Clouds
8:58 AM63.0 °F54.0 °F72 %29.75 in10.0 miVariable3.5 mphClear
9:58 AM63.0 °F50.0 °F63 %29.78 in10.0 miVariable4.6 mphClear
10:58 AM64.9 °F48.9 °F56 %29.78 in10.0 miWest (270°)4.6 mphClear
11:58 AM64.9 °F46.9 °F52 %29.78 in10.0 miWest (280°)3.5 mphClear
12:58 PM66.0 °F48.0 °F52 %29.78 in10.0 miVariable4.6 mphOvercast
1:58 PM64.9 °F48.0 °F54 %29.76 in10.0 miNW (320°)9.2 mphMostly Cloudy
2:58 PM62.1 °F48.9 °F62 %29.77 in10.0 miWest (280°)5.8 mphOvercast
3:58 PM60.1 °F46.9 °F62 %29.78 in10.0 miWest (280°)5.8 mphMostly Cloudy
4:58 PM57.0 °F48.0 °F72 %29.80 in10.0 miWNW (290°)4.6 mph0.00 inOvercast
5:30 PM53.6 °F48.2 °F82 %29.94 in10.0 miWNW (290°)4.6 mph0.00 inRainLight Rain
5:58 PM53.1 °F48.9 °F86 %29.81 in10.0 miNW (310°)5.8 mph0.00 inOvercast
6:48 PM48.2 °F44.6 °F87 %29.98 in10.0 miNW (310°)5.8 mph0.00 inRainLight Rain
6:58 PM48.9 °F45.0 °F86 %29.92 in10.0 miVariable4.6 mph0.00 inRainLight Rain
7:58 PM48.0 °F46.0 °F93 %29.93 in10.0 miNNE (20°)3.5 mph0.00 inRainLight Rain
8:58 PM48.0 °F46.9 °F96 %29.95 in10.0 miCalm0.00 inOvercast
9:58 PM48.0 °F46.9 °F96 %29.97 in10.0 miCalmMostly Cloudy
10:58 PM48.9 °F46.9 °F93 %29.99 in10.0 miCalmClear
11:58 PM48.0 °F46.0 °F93 %30.00 in10.0 miCalmPartly Cloudy
Hourly data recorded from K1J0, located miles away from Geneva - Airport, Alabama







STORIES FROM OUR PARTNERS